Location: Góry Miechowskie
(50.3599°N, 20.1803°E)
Time: 14:52:02
(UTC+00:00)

Vanguard 1 Rocket - Pass Details

Date: 14 September 2024
Orbit: 650 x 4218 km, 34.3° (Epoch: 07 October)

Event Time Altitude Azimuth Distance (km) Brightness Sun altitude
Rises 23:48:40 0° 174° (S) 5,348 - -34.0°
Reaches altitude 10° 23:54:20 10° 152° (SSE) 5,044 - -33.7°
Exits shadow 23:55:53 12° 145° (SE) 5,058 10.9 -33.6°
Maximum altitude 00:01:29 15° 123° (ESE) 5,408 11.2 -33.2°
Drops below altitude 10° 00:10:27 10° 97° (E) 6,597 12.0 -32.6°
Sets 00:20:16 0° 80° (E) 8,198 12.8 -31.8°
